Year,Month,Day,Hour,Minute,Value (Times are PST for temperature in C)
2008,04,02,00,00,3.50
2008,04,02,00,01,3.50
2008,04,02,00,02,3.50
2008,04,02,00,03,3.50
2008,04,02,00,04,3.50
2008,04,02,00,05,3.50
2008,04,02,00,06,3.50
2008,04,02,00,07,3.50
2008,04,02,00,08,3.50
2008,04,02,00,09,3.50
2008,04,02,00,10,3.50
2008,04,02,00,11,3.50
2008,04,02,00,12,3.50
2008,04,02,00,13,3.50
2008,04,02,00,14,3.50
2008,04,02,00,15,3.50
2008,04,02,00,16,3.50
2008,04,02,00,17,3.60
2008,04,02,00,18,3.60
2008,04,02,00,19,3.60
2008,04,02,00,20,3.60
2008,04,02,00,21,3.60
2008,04,02,00,22,3.60
2008,04,02,00,23,3.60
2008,04,02,00,24,3.60
2008,04,02,00,25,3.60
2008,04,02,00,26,3.60
2008,04,02,00,27,3.60
2008,04,02,00,28,3.60
2008,04,02,00,29,3.60
2008,04,02,00,30,3.60
2008,04,02,00,31,3.60
2008,04,02,00,32,3.60
2008,04,02,00,33,3.60
2008,04,02,00,34,3.60
2008,04,02,00,35,3.60
2008,04,02,00,36,3.60
2008,04,02,00,37,3.50
2008,04,02,00,38,3.50
2008,04,02,00,39,3.50
2008,04,02,00,40,3.50
2008,04,02,00,41,3.40
2008,04,02,00,42,3.40
2008,04,02,00,43,3.40
2008,04,02,00,44,3.40
2008,04,02,00,45,3.40
2008,04,02,00,46,3.30
2008,04,02,00,47,3.30
2008,04,02,00,48,3.30
2008,04,02,00,49,3.30
2008,04,02,00,50,3.30
2008,04,02,00,51,3.30
2008,04,02,00,52,3.30
2008,04,02,00,53,3.30
2008,04,02,00,54,3.30
2008,04,02,00,55,3.30
2008,04,02,00,56,3.30
2008,04,02,00,57,3.30
2008,04,02,00,58,3.30
2008,04,02,00,59,3.30
2008,04,02,01,00,3.30
2008,04,02,01,01,3.30
2008,04,02,01,02,3.30
2008,04,02,01,03,3.20
2008,04,02,01,04,3.20
2008,04,02,01,05,3.20
2008,04,02,01,06,3.20
2008,04,02,01,07,3.20
2008,04,02,01,08,3.20
2008,04,02,01,09,3.20
2008,04,02,01,10,3.10
2008,04,02,01,11,3.10
2008,04,02,01,12,3.10
2008,04,02,01,13,3.10
2008,04,02,01,14,3.10
2008,04,02,01,15,3.10
2008,04,02,01,16,3.10
2008,04,02,01,17,3.00
2008,04,02,01,18,3.00
2008,04,02,01,19,3.00
2008,04,02,01,20,2.90
2008,04,02,01,21,2.90
2008,04,02,01,22,2.90
2008,04,02,01,23,2.90
2008,04,02,01,24,2.90
2008,04,02,01,25,2.80
2008,04,02,01,26,2.80
2008,04,02,01,27,2.80
2008,04,02,01,28,2.80
2008,04,02,01,29,2.80
2008,04,02,01,30,2.70
2008,04,02,01,31,2.70
2008,04,02,01,32,2.70
2008,04,02,01,33,2.70
2008,04,02,01,34,2.70
2008,04,02,01,35,2.60
2008,04,02,01,36,2.60
2008,04,02,01,37,2.60
2008,04,02,01,38,2.60
2008,04,02,01,39,2.60
2008,04,02,01,40,2.50
2008,04,02,01,41,2.50
2008,04,02,01,42,2.50
2008,04,02,01,43,2.40
2008,04,02,01,44,2.40
2008,04,02,01,45,2.40
2008,04,02,01,46,2.40
2008,04,02,01,47,2.30
2008,04,02,01,48,2.30
2008,04,02,01,49,2.30
2008,04,02,01,50,2.30
2008,04,02,01,51,2.30
2008,04,02,01,52,2.30
2008,04,02,01,53,2.20
2008,04,02,01,54,2.20
2008,04,02,01,55,2.20
2008,04,02,01,56,2.20
2008,04,02,01,57,2.20
2008,04,02,01,58,2.10
2008,04,02,01,59,2.10
2008,04,02,02,00,2.10
2008,04,02,02,01,2.10
2008,04,02,02,02,2.00
2008,04,02,02,03,2.00
2008,04,02,02,04,2.00
2008,04,02,02,05,2.00
2008,04,02,02,06,1.90
2008,04,02,02,07,1.90
2008,04,02,02,08,1.90
2008,04,02,02,09,1.90
2008,04,02,02,10,1.90
2008,04,02,02,11,1.80
2008,04,02,02,12,1.80
2008,04,02,02,13,1.80
2008,04,02,02,14,1.80
2008,04,02,02,15,1.80
2008,04,02,02,16,1.80
2008,04,02,02,17,1.70
2008,04,02,02,18,1.70
2008,04,02,02,19,1.70
2008,04,02,02,20,1.70
2008,04,02,02,21,1.70
2008,04,02,02,22,1.70
2008,04,02,02,23,1.60
2008,04,02,02,24,1.60
2008,04,02,02,25,1.60
2008,04,02,02,26,1.60
2008,04,02,02,27,1.50
2008,04,02,02,28,1.50
2008,04,02,02,29,1.50
2008,04,02,02,30,1.40
2008,04,02,02,31,1.40
2008,04,02,02,32,1.40
2008,04,02,02,33,1.30
2008,04,02,02,34,1.30
2008,04,02,02,35,1.30
2008,04,02,02,36,1.30
2008,04,02,02,37,1.30
2008,04,02,02,38,1.30
2008,04,02,02,39,1.30
2008,04,02,02,40,1.30
2008,04,02,02,41,1.30
2008,04,02,02,42,1.30
2008,04,02,02,43,1.30
2008,04,02,02,44,1.30
2008,04,02,02,45,1.30
2008,04,02,02,46,1.20
2008,04,02,02,47,1.20
2008,04,02,02,48,1.20
2008,04,02,02,49,1.20
2008,04,02,02,50,1.20
2008,04,02,02,51,1.20
2008,04,02,02,52,1.20
2008,04,02,02,53,1.20
2008,04,02,02,54,1.20
2008,04,02,02,55,1.20
2008,04,02,02,56,1.20
2008,04,02,02,57,1.10
2008,04,02,02,58,1.10
2008,04,02,02,59,1.10
2008,04,02,03,00,1.10
2008,04,02,03,01,1.10
2008,04,02,03,02,1.10
2008,04,02,03,03,1.10
2008,04,02,03,04,1.10
2008,04,02,03,05,1.10
2008,04,02,03,06,1.10
2008,04,02,03,07,1.00
2008,04,02,03,08,1.00
2008,04,02,03,09,1.00
2008,04,02,03,10,1.00
2008,04,02,03,11,1.00
2008,04,02,03,12,1.00
2008,04,02,03,13,1.00
2008,04,02,03,14,1.00
2008,04,02,03,15,1.00
2008,04,02,03,16,0.90
2008,04,02,03,17,0.90
2008,04,02,03,18,0.90
2008,04,02,03,19,0.90
2008,04,02,03,20,0.90
2008,04,02,03,21,0.90
2008,04,02,03,22,0.90
2008,04,02,03,23,0.90
2008,04,02,03,24,0.80
2008,04,02,03,25,0.80
2008,04,02,03,26,0.80
2008,04,02,03,27,0.80
2008,04,02,03,28,0.80
2008,04,02,03,29,0.80
2008,04,02,03,30,0.80
2008,04,02,03,31,0.80
2008,04,02,03,32,0.80
2008,04,02,03,33,0.70
2008,04,02,03,34,0.70
2008,04,02,03,35,0.70
2008,04,02,03,36,0.70
2008,04,02,03,37,0.70
2008,04,02,03,38,0.70
2008,04,02,03,39,0.70
2008,04,02,03,40,0.70
2008,04,02,03,41,0.70
2008,04,02,03,42,0.60
2008,04,02,03,43,0.60
2008,04,02,03,44,0.60
2008,04,02,03,45,0.60
2008,04,02,03,46,0.60
2008,04,02,03,47,0.60
2008,04,02,03,48,0.60
2008,04,02,03,49,0.60
2008,04,02,03,50,0.60
2008,04,02,03,51,0.60
2008,04,02,03,52,0.60
2008,04,02,03,53,0.50
2008,04,02,03,54,0.50
2008,04,02,03,55,0.50
2008,04,02,03,56,0.50
2008,04,02,03,57,0.50
2008,04,02,03,58,0.40
2008,04,02,03,59,0.40
2008,04,02,04,00,0.40
2008,04,02,04,01,0.40
2008,04,02,04,02,0.40
2008,04,02,04,03,0.40
2008,04,02,04,04,0.40
2008,04,02,04,05,0.30
2008,04,02,04,06,0.30
2008,04,02,04,07,0.30
2008,04,02,04,08,0.30
2008,04,02,04,09,0.30
2008,04,02,04,10,0.30
2008,04,02,04,11,0.30
2008,04,02,04,12,0.30
2008,04,02,04,13,0.30
2008,04,02,04,14,0.30
2008,04,02,04,15,0.30
2008,04,02,04,16,0.30
2008,04,02,04,17,0.20
2008,04,02,04,18,0.20
2008,04,02,04,19,0.20
2008,04,02,04,20,0.20
2008,04,02,04,21,0.20
2008,04,02,04,22,0.20
2008,04,02,04,23,0.20
2008,04,02,04,24,0.20
2008,04,02,04,25,0.20
2008,04,02,04,26,0.20
2008,04,02,04,27,0.20
2008,04,02,04,28,0.20
2008,04,02,04,29,0.20
2008,04,02,04,30,0.20
2008,04,02,04,31,0.20
2008,04,02,04,32,0.10
2008,04,02,04,33,0.10
2008,04,02,04,34,0.10
2008,04,02,04,35,0.10
2008,04,02,04,36,0.10
2008,04,02,04,37,0.10
2008,04,02,04,38,0.10
2008,04,02,04,39,0.10
2008,04,02,04,40,0.10
2008,04,02,04,41,0.10
2008,04,02,04,42,0.10
2008,04,02,04,43,0.10
2008,04,02,04,44,0.10
2008,04,02,04,45,0.10
2008,04,02,04,46,0.10
2008,04,02,04,47,0.00
2008,04,02,04,48,0.00
2008,04,02,04,49,0.00
2008,04,02,04,50,0.00
2008,04,02,04,51,0.00
2008,04,02,04,52,0.00
2008,04,02,04,53,0.00
2008,04,02,04,54,-0.10
2008,04,02,04,55,-0.10
2008,04,02,04,56,-0.10
2008,04,02,04,57,-0.10
2008,04,02,04,58,-0.10
2008,04,02,04,59,-0.10
2008,04,02,05,00,-0.10
2008,04,02,05,01,-0.10
2008,04,02,05,02,-0.10
2008,04,02,05,03,0.00
2008,04,02,05,04,0.00
2008,04,02,05,05,0.00
2008,04,02,05,06,-0.10
2008,04,02,05,07,-0.10
2008,04,02,05,08,-0.10
2008,04,02,05,09,-0.10
2008,04,02,05,10,-0.10
2008,04,02,05,11,-0.10
2008,04,02,05,12,-0.10
2008,04,02,05,13,-0.10
2008,04,02,05,14,-0.10
2008,04,02,05,15,-0.10
2008,04,02,05,16,-0.10
2008,04,02,05,17,-0.10
2008,04,02,05,18,-0.10
2008,04,02,05,19,-0.10
2008,04,02,05,20,-0.10
2008,04,02,05,21,-0.10
2008,04,02,05,22,-0.20
2008,04,02,05,23,-0.20
2008,04,02,05,24,-0.20
2008,04,02,05,25,-0.20
2008,04,02,05,26,-0.20
2008,04,02,05,27,-0.20
2008,04,02,05,28,-0.20
2008,04,02,05,29,-0.20
2008,04,02,05,30,-0.20
2008,04,02,05,31,-0.20
2008,04,02,05,32,-0.20
2008,04,02,05,33,-0.20
2008,04,02,05,34,-0.20
2008,04,02,05,35,-0.20
2008,04,02,05,36,-0.20
2008,04,02,05,37,-0.20
2008,04,02,05,38,-0.20
2008,04,02,05,39,-0.20
2008,04,02,05,40,-0.20
2008,04,02,05,41,-0.20
2008,04,02,05,42,-0.20
2008,04,02,05,43,-0.20
2008,04,02,05,44,-0.20
2008,04,02,05,45,-0.20
2008,04,02,05,46,-0.20
2008,04,02,05,47,-0.20
2008,04,02,05,48,-0.20
2008,04,02,05,49,-0.20
2008,04,02,05,50,-0.20
2008,04,02,05,51,-0.20
2008,04,02,05,52,-0.20
2008,04,02,05,53,-0.20
2008,04,02,05,54,-0.20
2008,04,02,05,55,-0.20
2008,04,02,05,56,-0.20
2008,04,02,05,57,-0.20
2008,04,02,05,58,-0.20
2008,04,02,05,59,-0.20
2008,04,02,06,00,-0.20
2008,04,02,06,01,-0.20
2008,04,02,06,02,-0.20
2008,04,02,06,03,-0.20
2008,04,02,06,04,-0.20
2008,04,02,06,05,-0.20
2008,04,02,06,06,-0.30
2008,04,02,06,07,-0.30
2008,04,02,06,08,-0.30
2008,04,02,06,09,-0.30
2008,04,02,06,10,-0.30
2008,04,02,06,11,-0.30
2008,04,02,06,12,-0.30
2008,04,02,06,13,-0.30
2008,04,02,06,14,-0.30
2008,04,02,06,15,-0.30
2008,04,02,06,16,-0.30
2008,04,02,06,17,-0.30
2008,04,02,06,18,-0.30
2008,04,02,06,19,-0.30
2008,04,02,06,20,-0.30
2008,04,02,06,21,-0.30
2008,04,02,06,22,-0.30
2008,04,02,06,23,-0.30
2008,04,02,06,24,-0.30
2008,04,02,06,25,-0.30
2008,04,02,06,26,-0.30
2008,04,02,06,27,-0.20
2008,04,02,06,28,-0.20
2008,04,02,06,29,-0.20
2008,04,02,06,30,-0.20
2008,04,02,06,31,-0.20
2008,04,02,06,32,-0.20
2008,04,02,06,33,-0.20
2008,04,02,06,34,-0.20
2008,04,02,06,35,-0.20
2008,04,02,06,36,-0.20
2008,04,02,06,37,-0.20
2008,04,02,06,38,-0.20
2008,04,02,06,39,-0.20
2008,04,02,06,40,-0.20
2008,04,02,06,41,-0.20
2008,04,02,06,42,-0.20
2008,04,02,06,43,-0.20
2008,04,02,06,44,-0.20
2008,04,02,06,45,-0.20
2008,04,02,06,46,-0.20
2008,04,02,06,47,-0.20
2008,04,02,06,48,-0.20
2008,04,02,06,49,-0.20
2008,04,02,06,50,-0.20
2008,04,02,06,51,-0.20
2008,04,02,06,52,-0.30
2008,04,02,06,53,-0.30
2008,04,02,06,54,-0.30
2008,04,02,06,55,-0.30
2008,04,02,06,56,-0.30
2008,04,02,06,57,-0.30
2008,04,02,06,58,-0.30
2008,04,02,06,59,-0.30
2008,04,02,07,00,-0.30
2008,04,02,07,01,-0.30
2008,04,02,07,02,-0.30
2008,04,02,07,03,-0.30
2008,04,02,07,04,-0.30
2008,04,02,07,05,-0.30
2008,04,02,07,06,-0.30
2008,04,02,07,07,-0.30
2008,04,02,07,08,-0.30
2008,04,02,07,09,-0.30
2008,04,02,07,10,-0.30
2008,04,02,07,11,-0.30
2008,04,02,07,12,-0.30
2008,04,02,07,13,-0.30
2008,04,02,07,14,-0.30
2008,04,02,07,15,-0.30
2008,04,02,07,16,-0.30
2008,04,02,07,17,-0.30
2008,04,02,07,18,-0.30
2008,04,02,07,19,-0.30
2008,04,02,07,20,-0.30
2008,04,02,07,21,-0.30
2008,04,02,07,22,-0.30
2008,04,02,07,23,-0.30
2008,04,02,07,24,-0.30
2008,04,02,07,25,-0.30
2008,04,02,07,26,-0.30
2008,04,02,07,27,-0.30
2008,04,02,07,28,-0.30
2008,04,02,07,29,-0.30
2008,04,02,07,30,-0.30
2008,04,02,07,31,-0.30
2008,04,02,07,32,-0.20
2008,04,02,07,33,-0.20
2008,04,02,07,34,-0.20
2008,04,02,07,35,-0.20
2008,04,02,07,36,-0.20
2008,04,02,07,37,-0.20
2008,04,02,07,38,-0.10
2008,04,02,07,39,-0.10
2008,04,02,07,40,-0.10
2008,04,02,07,41,-0.10
2008,04,02,07,42,-0.10
2008,04,02,07,43,0.00
2008,04,02,07,44,0.00
2008,04,02,07,45,0.00
2008,04,02,07,46,0.00
2008,04,02,07,47,0.00
2008,04,02,07,48,0.10
2008,04,02,07,49,0.10
2008,04,02,07,50,0.10
2008,04,02,07,51,0.10
2008,04,02,07,52,0.10
2008,04,02,07,53,0.10
2008,04,02,07,54,0.10
2008,04,02,07,55,0.10
2008,04,02,07,56,0.20
2008,04,02,07,57,0.20
2008,04,02,07,58,0.20
2008,04,02,07,59,0.20
2008,04,02,08,00,0.20
2008,04,02,08,01,0.20
2008,04,02,08,02,0.20
2008,04,02,08,03,0.20
2008,04,02,08,04,0.20
2008,04,02,08,05,0.20
2008,04,02,08,06,0.30
2008,04,02,08,07,0.30
2008,04,02,08,08,0.30
2008,04,02,08,09,0.40
2008,04,02,08,10,0.40
2008,04,02,08,11,0.50
2008,04,02,08,12,0.50
2008,04,02,08,13,0.60
2008,04,02,08,14,0.70
2008,04,02,08,15,0.70
2008,04,02,08,16,0.80
2008,04,02,08,17,0.80
2008,04,02,08,18,0.90
2008,04,02,08,19,0.90
2008,04,02,08,20,1.00
2008,04,02,08,21,1.10
2008,04,02,08,22,1.20
2008,04,02,08,23,1.30
2008,04,02,08,24,1.30
2008,04,02,08,25,1.40
2008,04,02,08,26,1.50
2008,04,02,08,27,1.60
2008,04,02,08,28,1.70
2008,04,02,08,29,1.80
2008,04,02,08,30,1.80
2008,04,02,08,31,1.90
2008,04,02,08,32,2.00
2008,04,02,08,33,2.00
2008,04,02,08,34,2.10
2008,04,02,08,35,2.10
2008,04,02,08,36,2.20
2008,04,02,08,37,2.20
2008,04,02,08,38,2.30
2008,04,02,08,39,2.30
2008,04,02,08,40,2.40
2008,04,02,08,41,2.40
2008,04,02,08,42,2.50
2008,04,02,08,43,2.60
2008,04,02,08,44,2.60
2008,04,02,08,45,2.70
2008,04,02,08,46,2.70
2008,04,02,08,47,2.80
2008,04,02,08,48,2.80
2008,04,02,08,49,2.80
2008,04,02,08,50,2.90
2008,04,02,08,51,2.90
2008,04,02,08,52,3.00
2008,04,02,08,53,3.10
2008,04,02,08,54,3.10
2008,04,02,08,55,3.10
2008,04,02,08,56,3.20
2008,04,02,08,57,3.20
2008,04,02,08,58,3.30
2008,04,02,08,59,3.30
2008,04,02,09,00,3.30
2008,04,02,09,01,3.40
2008,04,02,09,02,3.40
2008,04,02,09,03,3.50
2008,04,02,09,04,3.50
2008,04,02,09,05,3.60
2008,04,02,09,06,3.60
2008,04,02,09,07,3.70
2008,04,02,09,08,3.80
2008,04,02,09,09,3.90
2008,04,02,09,10,4.00
2008,04,02,09,11,4.10
2008,04,02,09,12,4.10
2008,04,02,09,13,4.20
2008,04,02,09,14,4.20
2008,04,02,09,15,4.20
2008,04,02,09,16,4.20
2008,04,02,09,17,4.30
2008,04,02,09,18,4.30
2008,04,02,09,19,4.30
2008,04,02,09,20,4.30
2008,04,02,09,21,4.30
2008,04,02,09,22,4.30
2008,04,02,09,23,4.30
2008,04,02,09,24,4.40
2008,04,02,09,25,4.40
2008,04,02,09,26,4.40
2008,04,02,09,27,4.30
2008,04,02,09,28,4.30
2008,04,02,09,29,4.30
2008,04,02,09,30,4.30
2008,04,02,09,31,4.40
2008,04,02,09,32,4.40
2008,04,02,09,33,4.40
2008,04,02,09,34,4.50
2008,04,02,09,35,4.50
2008,04,02,09,36,4.60
2008,04,02,09,37,4.60
2008,04,02,09,38,4.70
2008,04,02,09,39,4.70
2008,04,02,09,40,4.70
2008,04,02,09,41,4.70
2008,04,02,09,42,4.70
2008,04,02,09,43,4.70
2008,04,02,09,44,4.80
2008,04,02,09,45,4.80
2008,04,02,09,46,4.80
2008,04,02,09,47,4.80
2008,04,02,09,48,4.80
2008,04,02,09,49,4.90
2008,04,02,09,50,4.90
2008,04,02,09,51,4.80
2008,04,02,09,52,4.80
2008,04,02,09,53,4.80
2008,04,02,09,54,4.80
2008,04,02,09,55,4.80
2008,04,02,09,56,4.80
2008,04,02,09,57,4.90
2008,04,02,09,58,4.90
2008,04,02,09,59,5.00
2008,04,02,10,00,5.00
2008,04,02,10,01,5.00
2008,04,02,10,02,5.00
2008,04,02,10,03,5.00
2008,04,02,10,04,5.00
2008,04,02,10,05,5.00
2008,04,02,10,06,5.10
2008,04,02,10,07,5.10
2008,04,02,10,08,5.10
2008,04,02,10,09,5.10
2008,04,02,10,10,5.00
2008,04,02,10,11,5.00
2008,04,02,10,12,5.00
2008,04,02,10,13,5.00
2008,04,02,10,14,5.00
2008,04,02,10,15,5.00
2008,04,02,10,16,5.10
2008,04,02,10,17,5.10
2008,04,02,10,18,5.10
2008,04,02,10,19,5.10
2008,04,02,10,20,5.10
2008,04,02,10,21,5.10
2008,04,02,10,22,5.10
2008,04,02,10,23,5.10
2008,04,02,10,24,5.10
2008,04,02,10,25,5.10
2008,04,02,10,26,5.10
2008,04,02,10,27,5.10
2008,04,02,10,28,5.10
2008,04,02,10,29,5.10
2008,04,02,10,30,5.20
2008,04,02,10,31,5.20
2008,04,02,10,32,5.20
2008,04,02,10,33,5.20
2008,04,02,10,34,5.20
2008,04,02,10,35,5.20
2008,04,02,10,36,5.20
2008,04,02,10,37,5.20
2008,04,02,10,38,5.30
2008,04,02,10,39,5.30
2008,04,02,10,40,5.30
2008,04,02,10,41,5.30
2008,04,02,10,42,5.40
2008,04,02,10,43,5.40
2008,04,02,10,44,5.40
2008,04,02,10,45,5.40
2008,04,02,10,46,5.50
2008,04,02,10,47,5.50
2008,04,02,10,48,5.50
2008,04,02,10,49,5.50
2008,04,02,10,50,5.50
2008,04,02,10,51,5.50
2008,04,02,10,52,5.50
2008,04,02,10,53,5.50
2008,04,02,10,54,5.50
2008,04,02,10,55,5.40
2008,04,02,10,56,5.40
2008,04,02,10,57,5.40
2008,04,02,10,58,5.40
2008,04,02,10,59,5.50
2008,04,02,11,00,5.50
2008,04,02,11,01,5.50
2008,04,02,11,02,5.60
2008,04,02,11,03,5.60
2008,04,02,11,04,5.70
2008,04,02,11,05,5.70
2008,04,02,11,06,5.70
2008,04,02,11,07,5.80
2008,04,02,11,08,5.90
2008,04,02,11,09,6.00
2008,04,02,11,10,6.00
2008,04,02,11,11,6.10
2008,04,02,11,12,6.10
2008,04,02,11,13,6.10
2008,04,02,11,14,6.10
2008,04,02,11,15,6.10
2008,04,02,11,16,6.10
2008,04,02,11,17,6.10
2008,04,02,11,18,6.20
2008,04,02,11,19,6.20
2008,04,02,11,20,6.20
2008,04,02,11,21,6.20
2008,04,02,11,22,6.20
2008,04,02,11,23,6.20
2008,04,02,11,24,6.20
2008,04,02,11,25,6.20
2008,04,02,11,26,6.20
2008,04,02,11,27,6.30
2008,04,02,11,28,6.30
2008,04,02,11,29,6.30
2008,04,02,11,30,6.40
2008,04,02,11,31,6.40
2008,04,02,11,32,6.50
2008,04,02,11,33,6.50
2008,04,02,11,34,6.50
2008,04,02,11,35,6.50
2008,04,02,11,36,6.50
2008,04,02,11,37,6.50
2008,04,02,11,38,6.50
2008,04,02,11,39,6.50
2008,04,02,11,40,6.60
2008,04,02,11,41,6.60
2008,04,02,11,42,6.70
2008,04,02,11,43,6.70
2008,04,02,11,44,6.70
2008,04,02,11,45,6.70
2008,04,02,11,46,6.70
2008,04,02,11,47,6.80
2008,04,02,11,48,6.80
2008,04,02,11,49,6.80
2008,04,02,11,50,6.90
2008,04,02,11,51,6.90
2008,04,02,11,52,6.90
2008,04,02,11,53,6.90
2008,04,02,11,54,6.80
2008,04,02,11,55,6.80
2008,04,02,11,56,6.80
2008,04,02,11,57,6.80
2008,04,02,11,58,6.80
2008,04,02,11,59,6.80
2008,04,02,12,00,6.90
2008,04,02,12,01,7.00
2008,04,02,12,02,7.00
2008,04,02,12,03,7.00
2008,04,02,12,04,7.00
2008,04,02,12,05,7.00
2008,04,02,12,06,7.10
2008,04,02,12,07,7.00
2008,04,02,12,08,7.00
2008,04,02,12,09,7.00
2008,04,02,12,10,7.00
2008,04,02,12,11,7.00
2008,04,02,12,12,7.10
2008,04,02,12,13,7.20
2008,04,02,12,14,7.20
2008,04,02,12,15,7.20
2008,04,02,12,16,7.20
2008,04,02,12,17,7.30
2008,04,02,12,18,7.40
2008,04,02,12,19,7.50
2008,04,02,12,20,7.50
2008,04,02,12,21,7.60
2008,04,02,12,22,7.70
2008,04,02,12,23,7.80
2008,04,02,12,24,7.80
2008,04,02,12,25,7.70
2008,04,02,12,26,7.70
2008,04,02,12,27,7.70
2008,04,02,12,28,7.70
2008,04,02,12,29,7.80
2008,04,02,12,30,7.70
2008,04,02,12,31,7.70
2008,04,02,12,32,7.70
2008,04,02,12,33,7.70
2008,04,02,12,34,7.70
2008,04,02,12,35,7.70
2008,04,02,12,36,7.60
2008,04,02,12,37,7.60
2008,04,02,12,38,7.60
2008,04,02,12,39,7.60
2008,04,02,12,40,7.60
2008,04,02,12,41,7.70
2008,04,02,12,42,7.80
2008,04,02,12,43,7.70
2008,04,02,12,44,7.70
2008,04,02,12,45,7.80
2008,04,02,12,46,7.80
2008,04,02,12,47,7.80
2008,04,02,12,48,7.80
2008,04,02,12,49,7.80
2008,04,02,12,50,7.80
2008,04,02,12,51,7.80
2008,04,02,12,52,7.80
2008,04,02,12,53,7.80
2008,04,02,12,54,7.80
2008,04,02,12,55,7.80
2008,04,02,12,56,7.70
2008,04,02,12,57,7.60
2008,04,02,12,58,7.60
2008,04,02,12,59,7.60
2008,04,02,13,00,7.60
2008,04,02,13,01,7.60
2008,04,02,13,02,7.60
2008,04,02,13,03,7.70
2008,04,02,13,04,7.80
2008,04,02,13,05,7.80
2008,04,02,13,06,7.90
2008,04,02,13,07,7.90
2008,04,02,13,08,7.90
2008,04,02,13,09,8.00
2008,04,02,13,10,8.00
2008,04,02,13,11,8.00
2008,04,02,13,12,8.10
2008,04,02,13,13,8.10
2008,04,02,13,14,8.10
2008,04,02,13,15,8.10
2008,04,02,13,16,8.20
2008,04,02,13,17,8.20
2008,04,02,13,18,8.20
2008,04,02,13,19,8.30
2008,04,02,13,20,8.30
2008,04,02,13,21,8.30
2008,04,02,13,22,8.30
2008,04,02,13,23,8.20
2008,04,02,13,24,8.20
2008,04,02,13,25,8.20
2008,04,02,13,26,8.30
2008,04,02,13,27,8.30
2008,04,02,13,28,8.30
2008,04,02,13,29,8.30
2008,04,02,13,30,8.30
2008,04,02,13,31,8.40
2008,04,02,13,32,8.40
2008,04,02,13,33,8.40
2008,04,02,13,34,8.40
2008,04,02,13,35,8.30
2008,04,02,13,36,8.30
2008,04,02,13,37,8.30
2008,04,02,13,38,8.30
2008,04,02,13,39,8.40
2008,04,02,13,40,8.40
2008,04,02,13,41,8.50
2008,04,02,13,42,8.50
2008,04,02,13,43,8.60
2008,04,02,13,44,8.60
2008,04,02,13,45,8.50
2008,04,02,13,46,8.50
2008,04,02,13,47,8.50
2008,04,02,13,48,8.50
2008,04,02,13,49,8.60
2008,04,02,13,50,8.70
2008,04,02,13,51,8.70
2008,04,02,13,52,8.80
2008,04,02,13,53,8.90
2008,04,02,13,54,8.90
2008,04,02,13,55,8.80
2008,04,02,13,56,8.80
2008,04,02,13,57,8.80
2008,04,02,13,58,8.80
2008,04,02,13,59,8.70
2008,04,02,14,00,8.70
2008,04,02,14,01,8.70
2008,04,02,14,02,8.70
2008,04,02,14,03,8.70
2008,04,02,14,04,8.70
2008,04,02,14,05,8.80
2008,04,02,14,06,8.80
2008,04,02,14,07,8.80
2008,04,02,14,08,8.80
2008,04,02,14,09,8.80
2008,04,02,14,10,8.80
2008,04,02,14,11,8.80
2008,04,02,14,12,8.80
2008,04,02,14,13,8.80
2008,04,02,14,14,8.80
2008,04,02,14,15,8.80
2008,04,02,14,16,8.80
2008,04,02,14,17,8.80
2008,04,02,14,18,8.80
2008,04,02,14,19,8.80
2008,04,02,14,20,8.90
2008,04,02,14,21,8.90
2008,04,02,14,22,9.00
2008,04,02,14,23,9.10
2008,04,02,14,24,9.20
2008,04,02,14,25,9.20
2008,04,02,14,26,9.20
2008,04,02,14,27,9.20
2008,04,02,14,28,9.30
2008,04,02,14,29,9.30
2008,04,02,14,30,9.30
2008,04,02,14,31,9.30
2008,04,02,14,32,9.30
2008,04,02,14,33,9.40
2008,04,02,14,34,9.40
2008,04,02,14,35,9.40
2008,04,02,14,36,9.30
2008,04,02,14,37,9.30
2008,04,02,14,38,9.30
2008,04,02,14,39,9.30
2008,04,02,14,40,9.20
2008,04,02,14,41,9.20
2008,04,02,14,42,9.20
2008,04,02,14,43,9.20
2008,04,02,14,44,9.10
2008,04,02,14,45,9.10
2008,04,02,14,46,9.20
2008,04,02,14,47,9.20
2008,04,02,14,48,9.20
2008,04,02,14,49,9.20
2008,04,02,14,50,9.30
2008,04,02,14,51,9.40
2008,04,02,14,52,9.40
2008,04,02,14,53,9.30
2008,04,02,14,54,9.30
2008,04,02,14,55,9.30
2008,04,02,14,56,9.30
2008,04,02,14,57,9.30
2008,04,02,14,58,9.30
2008,04,02,14,59,9.30
2008,04,02,15,00,9.30
2008,04,02,15,01,9.30
2008,04,02,15,02,9.30
2008,04,02,15,03,9.30
2008,04,02,15,04,9.30
2008,04,02,15,05,9.30
2008,04,02,15,06,9.30
2008,04,02,15,07,9.40
2008,04,02,15,08,9.40
2008,04,02,15,09,9.60
2008,04,02,15,10,9.60
2008,04,02,15,11,9.60
2008,04,02,15,12,9.60
2008,04,02,15,13,9.70
2008,04,02,15,14,9.70
2008,04,02,15,15,9.70
2008,04,02,15,16,9.70
2008,04,02,15,17,9.70
2008,04,02,15,18,9.60
2008,04,02,15,19,9.60
2008,04,02,15,20,9.60
2008,04,02,15,21,9.60
2008,04,02,15,22,9.60
2008,04,02,15,23,9.60
2008,04,02,15,24,9.60
2008,04,02,15,25,9.50
2008,04,02,15,26,9.50
2008,04,02,15,27,9.50
2008,04,02,15,28,9.60
2008,04,02,15,29,9.60
2008,04,02,15,30,9.70
2008,04,02,15,31,9.70
2008,04,02,15,32,9.80
2008,04,02,15,33,9.80
2008,04,02,15,34,9.80
2008,04,02,15,35,9.80
2008,04,02,15,36,9.90
2008,04,02,15,37,9.90
2008,04,02,15,38,9.80
2008,04,02,15,39,9.80
2008,04,02,15,40,9.80
2008,04,02,15,41,9.70
2008,04,02,15,42,9.60
2008,04,02,15,43,9.60
2008,04,02,15,44,9.50
2008,04,02,15,45,9.50
2008,04,02,15,46,9.50
2008,04,02,15,47,9.50
2008,04,02,15,48,9.50
2008,04,02,15,49,9.30
2008,04,02,15,50,9.30
2008,04,02,15,51,9.30
2008,04,02,15,52,9.30
2008,04,02,15,53,9.30
2008,04,02,15,54,9.30
2008,04,02,15,55,9.40
2008,04,02,15,56,9.40
2008,04,02,15,57,9.50
2008,04,02,15,58,9.50
2008,04,02,15,59,9.60
2008,04,02,16,00,9.60
2008,04,02,16,01,9.70
2008,04,02,16,02,9.80
2008,04,02,16,03,9.80
2008,04,02,16,04,9.80
2008,04,02,16,05,9.70
2008,04,02,16,06,9.70
2008,04,02,16,07,9.70
2008,04,02,16,08,9.70
2008,04,02,16,09,9.70
2008,04,02,16,10,9.70
2008,04,02,16,11,9.70
2008,04,02,16,12,9.80
2008,04,02,16,13,9.80
2008,04,02,16,14,9.80
2008,04,02,16,15,9.80
2008,04,02,16,16,9.80
2008,04,02,16,17,9.80
2008,04,02,16,18,9.90
2008,04,02,16,19,9.90
2008,04,02,16,20,9.90
2008,04,02,16,21,9.90
2008,04,02,16,22,9.90
2008,04,02,16,23,9.80
2008,04,02,16,24,9.80
2008,04,02,16,25,9.70
2008,04,02,16,26,9.70
2008,04,02,16,27,9.70
2008,04,02,16,28,9.70
2008,04,02,16,29,9.80
2008,04,02,16,30,9.80
2008,04,02,16,31,9.90
2008,04,02,16,32,9.90
2008,04,02,16,33,9.90
2008,04,02,16,34,9.90
2008,04,02,16,35,9.90
2008,04,02,16,36,9.90
2008,04,02,16,37,9.90
2008,04,02,16,38,10.00
2008,04,02,16,39,10.00
2008,04,02,16,40,10.00
2008,04,02,16,41,9.90
2008,04,02,16,42,9.80
2008,04,02,16,43,9.80
2008,04,02,16,44,9.80
2008,04,02,16,45,9.80
2008,04,02,16,46,9.80
2008,04,02,16,47,9.80
2008,04,02,16,48,9.80
2008,04,02,16,49,9.80
2008,04,02,16,50,9.80
2008,04,02,16,51,9.80
2008,04,02,16,52,9.70
2008,04,02,16,53,9.70
2008,04,02,16,54,9.70
2008,04,02,16,55,9.80
2008,04,02,16,56,9.70
2008,04,02,16,57,9.70
2008,04,02,16,58,9.60
2008,04,02,16,59,9.60
2008,04,02,17,00,9.60
2008,04,02,17,01,9.50
2008,04,02,17,02,9.60
2008,04,02,17,03,9.60
2008,04,02,17,04,9.60
2008,04,02,17,05,9.60
2008,04,02,17,06,9.60
2008,04,02,17,07,9.70
2008,04,02,17,08,9.70
2008,04,02,17,09,9.70
2008,04,02,17,10,9.70
2008,04,02,17,11,9.80
2008,04,02,17,12,9.80
2008,04,02,17,13,9.80
2008,04,02,17,14,9.80
2008,04,02,17,15,9.80
2008,04,02,17,16,9.90
2008,04,02,17,17,9.80
2008,04,02,17,18,9.70
2008,04,02,17,19,9.70
2008,04,02,17,20,9.70
2008,04,02,17,21,9.70
2008,04,02,17,22,9.70
2008,04,02,17,23,9.70
2008,04,02,17,24,9.70
2008,04,02,17,25,9.70
2008,04,02,17,26,9.70
2008,04,02,17,27,9.60
2008,04,02,17,28,9.50
2008,04,02,17,29,9.40
2008,04,02,17,30,9.40
2008,04,02,17,31,9.30
2008,04,02,17,32,9.20
2008,04,02,17,33,9.20
2008,04,02,17,34,9.20
2008,04,02,17,35,9.20
2008,04,02,17,36,9.20
2008,04,02,17,37,9.20
2008,04,02,17,38,9.20
2008,04,02,17,39,9.20
2008,04,02,17,40,9.30
2008,04,02,17,41,9.30
2008,04,02,17,42,9.40
2008,04,02,17,43,9.40
2008,04,02,17,44,9.50
2008,04,02,17,45,9.60
2008,04,02,17,46,9.60
2008,04,02,17,47,9.70
2008,04,02,17,48,9.70
2008,04,02,17,49,9.80
2008,04,02,17,50,9.80
2008,04,02,17,51,9.80
2008,04,02,17,52,9.90
2008,04,02,17,53,9.90
2008,04,02,17,54,9.80
2008,04,02,17,55,9.70
2008,04,02,17,56,9.60
2008,04,02,17,57,9.50
2008,04,02,17,58,9.40
2008,04,02,17,59,9.40